Year,Month,Day,Hour,Minute,Value (Times are PST for temperature in C)
2015,06,25,00,00,15.90
2015,06,25,00,01,15.90
2015,06,25,00,02,15.90
2015,06,25,00,03,15.90
2015,06,25,00,04,15.80
2015,06,25,00,05,15.80
2015,06,25,00,06,15.80
2015,06,25,00,07,15.80
2015,06,25,00,08,15.80
2015,06,25,00,09,15.80
2015,06,25,00,10,15.80
2015,06,25,00,11,15.80
2015,06,25,00,12,15.70
2015,06,25,00,13,15.70
2015,06,25,00,14,15.70
2015,06,25,00,15,15.70
2015,06,25,00,16,15.60
2015,06,25,00,17,15.60
2015,06,25,00,18,15.60
2015,06,25,00,19,15.60
2015,06,25,00,20,15.60
2015,06,25,00,21,15.60
2015,06,25,00,22,15.60
2015,06,25,00,23,15.60
2015,06,25,00,24,15.60
2015,06,25,00,25,15.60
2015,06,25,00,26,15.50
2015,06,25,00,27,15.50
2015,06,25,00,28,15.50
2015,06,25,00,29,15.50
2015,06,25,00,30,15.50
2015,06,25,00,31,15.40
2015,06,25,00,32,15.40
2015,06,25,00,33,15.40
2015,06,25,00,34,15.40
2015,06,25,00,35,15.40
2015,06,25,00,36,15.30
2015,06,25,00,37,15.30
2015,06,25,00,38,15.30
2015,06,25,00,39,15.30
2015,06,25,00,40,15.30
2015,06,25,00,41,15.30
2015,06,25,00,42,15.20
2015,06,25,00,43,15.20
2015,06,25,00,44,15.20
2015,06,25,00,45,15.20
2015,06,25,00,46,15.10
2015,06,25,00,47,15.10
2015,06,25,00,48,15.10
2015,06,25,00,49,15.10
2015,06,25,00,50,15.10
2015,06,25,00,51,15.10
2015,06,25,00,52,15.10
2015,06,25,00,53,15.10
2015,06,25,00,54,15.00
2015,06,25,00,55,15.00
2015,06,25,00,56,15.00
2015,06,25,00,57,15.00
2015,06,25,00,58,15.00
2015,06,25,00,59,15.00
2015,06,25,01,00,14.90
2015,06,25,01,01,14.90
2015,06,25,01,02,14.90
2015,06,25,01,03,14.90
2015,06,25,01,04,14.90
2015,06,25,01,05,14.90
2015,06,25,01,06,14.90
2015,06,25,01,07,14.90
2015,06,25,01,08,14.90
2015,06,25,01,09,14.90
2015,06,25,01,10,14.90
2015,06,25,01,11,14.90
2015,06,25,01,12,14.90
2015,06,25,01,13,14.90
2015,06,25,01,14,14.90
2015,06,25,01,15,14.90
2015,06,25,01,16,14.90
2015,06,25,01,17,14.90
2015,06,25,01,18,14.90
2015,06,25,01,19,14.90
2015,06,25,01,20,14.90
2015,06,25,01,21,14.90
2015,06,25,01,22,14.90
2015,06,25,01,23,14.90
2015,06,25,01,24,14.90
2015,06,25,01,25,14.90
2015,06,25,01,26,14.90
2015,06,25,01,27,14.90
2015,06,25,01,28,14.90
2015,06,25,01,29,14.90
2015,06,25,01,30,14.90
2015,06,25,01,31,14.90
2015,06,25,01,32,14.90
2015,06,25,01,33,14.90
2015,06,25,01,34,14.90
2015,06,25,01,35,14.90
2015,06,25,01,36,14.90
2015,06,25,01,37,14.90
2015,06,25,01,38,14.90
2015,06,25,01,39,14.90
2015,06,25,01,40,14.90
2015,06,25,01,41,14.90
2015,06,25,01,42,14.90
2015,06,25,01,43,14.90
2015,06,25,01,44,14.90
2015,06,25,01,45,14.90
2015,06,25,01,46,14.90
2015,06,25,01,47,15.00
2015,06,25,01,48,14.90
2015,06,25,01,49,14.90
2015,06,25,01,50,14.90
2015,06,25,01,51,14.90
2015,06,25,01,52,14.90
2015,06,25,01,53,14.90
2015,06,25,01,54,14.90
2015,06,25,01,55,14.90
2015,06,25,01,56,14.90
2015,06,25,01,57,14.90
2015,06,25,01,58,14.90
2015,06,25,01,59,15.00
2015,06,25,02,00,15.00
2015,06,25,02,01,15.00
2015,06,25,02,02,15.00
2015,06,25,02,03,15.00
2015,06,25,02,04,15.00
2015,06,25,02,05,15.00
2015,06,25,02,06,15.10
2015,06,25,02,07,15.10
2015,06,25,02,08,15.10
2015,06,25,02,09,15.10
2015,06,25,02,10,15.20
2015,06,25,02,11,15.20
2015,06,25,02,12,15.20
2015,06,25,02,13,15.20
2015,06,25,02,14,15.20
2015,06,25,02,15,15.20
2015,06,25,02,16,15.20
2015,06,25,02,17,15.20
2015,06,25,02,18,15.20
2015,06,25,02,19,15.10
2015,06,25,02,20,15.10
2015,06,25,02,21,15.10
2015,06,25,02,22,15.10
2015,06,25,02,23,15.10
2015,06,25,02,24,15.10
2015,06,25,02,25,15.10
2015,06,25,02,26,15.10
2015,06,25,02,27,15.10
2015,06,25,02,28,15.10
2015,06,25,02,29,15.10
2015,06,25,02,30,15.20
2015,06,25,02,31,15.20
2015,06,25,02,32,15.20
2015,06,25,02,33,15.30
2015,06,25,02,34,15.30
2015,06,25,02,35,15.30
2015,06,25,02,36,15.30
2015,06,25,02,37,15.30
2015,06,25,02,38,15.30
2015,06,25,02,39,15.30
2015,06,25,02,40,15.30
2015,06,25,02,41,15.30
2015,06,25,02,42,15.30
2015,06,25,02,43,15.30
2015,06,25,02,44,15.20
2015,06,25,02,45,15.20
2015,06,25,02,46,15.20
2015,06,25,02,47,15.20
2015,06,25,02,48,15.20
2015,06,25,02,49,15.20
2015,06,25,02,50,15.20
2015,06,25,02,51,15.20
2015,06,25,02,52,15.20
2015,06,25,02,53,15.20
2015,06,25,02,54,15.20
2015,06,25,02,55,15.20
2015,06,25,02,56,15.20
2015,06,25,02,57,15.20
2015,06,25,02,58,15.20
2015,06,25,02,59,15.20
2015,06,25,03,00,15.30
2015,06,25,03,01,15.30
2015,06,25,03,02,15.30
2015,06,25,03,03,15.30
2015,06,25,03,04,15.30
2015,06,25,03,05,15.30
2015,06,25,03,06,15.30
2015,06,25,03,07,15.30
2015,06,25,03,08,15.30
2015,06,25,03,09,15.30
2015,06,25,03,10,15.30
2015,06,25,03,11,15.30
2015,06,25,03,12,15.30
2015,06,25,03,13,15.30
2015,06,25,03,14,15.30
2015,06,25,03,15,15.40
2015,06,25,03,16,15.40
2015,06,25,03,17,15.40
2015,06,25,03,18,15.40
2015,06,25,03,19,15.40
2015,06,25,03,20,15.40
2015,06,25,03,21,15.40
2015,06,25,03,22,15.40
2015,06,25,03,23,15.40
2015,06,25,03,24,15.40
2015,06,25,03,25,15.40
2015,06,25,03,26,15.40
2015,06,25,03,27,15.40
2015,06,25,03,28,15.40
2015,06,25,03,29,15.40
2015,06,25,03,30,15.40
2015,06,25,03,31,15.40
2015,06,25,03,32,15.40
2015,06,25,03,33,15.40
2015,06,25,03,34,15.40
2015,06,25,03,35,15.40
2015,06,25,03,36,15.40
2015,06,25,03,37,15.40
2015,06,25,03,38,15.40
2015,06,25,03,39,15.30
2015,06,25,03,40,15.30
2015,06,25,03,41,15.30
2015,06,25,03,42,15.30
2015,06,25,03,43,15.30
2015,06,25,03,44,15.30
2015,06,25,03,45,15.30
2015,06,25,03,46,15.30
2015,06,25,03,47,15.30
2015,06,25,03,48,15.30
2015,06,25,03,49,15.30
2015,06,25,03,50,15.20
2015,06,25,03,51,15.20
2015,06,25,03,52,15.20
2015,06,25,03,53,15.10
2015,06,25,03,54,15.10
2015,06,25,03,55,15.10
2015,06,25,03,56,15.10
2015,06,25,03,57,15.10
2015,06,25,03,58,15.10
2015,06,25,03,59,15.10
2015,06,25,04,00,15.10
2015,06,25,04,01,15.10
2015,06,25,04,02,15.10
2015,06,25,04,03,15.10
2015,06,25,04,04,15.10
2015,06,25,04,05,15.10
2015,06,25,04,06,15.10
2015,06,25,04,07,15.10
2015,06,25,04,08,15.10
2015,06,25,04,09,15.10
2015,06,25,04,10,15.10
2015,06,25,04,11,15.20
2015,06,25,04,12,15.20
2015,06,25,04,13,15.20
2015,06,25,04,14,15.20
2015,06,25,04,15,15.20
2015,06,25,04,16,15.20
2015,06,25,04,17,15.20
2015,06,25,04,18,15.20
2015,06,25,04,19,15.20
2015,06,25,04,20,15.20
2015,06,25,04,21,15.20
2015,06,25,04,22,15.20
2015,06,25,04,23,15.20
2015,06,25,04,24,15.20
2015,06,25,04,25,15.20
2015,06,25,04,26,15.20
2015,06,25,04,27,15.20
2015,06,25,04,28,15.20
2015,06,25,04,29,15.20
2015,06,25,04,30,15.20
2015,06,25,04,31,15.10
2015,06,25,04,32,15.10
2015,06,25,04,33,15.10
2015,06,25,04,34,15.10
2015,06,25,04,35,15.10
2015,06,25,04,36,15.10
2015,06,25,04,37,15.10
2015,06,25,04,38,15.10
2015,06,25,04,39,15.10
2015,06,25,04,40,15.10
2015,06,25,04,41,15.10
2015,06,25,04,42,15.10
2015,06,25,04,43,15.10
2015,06,25,04,44,15.10
2015,06,25,04,45,15.10
2015,06,25,04,46,15.10
2015,06,25,04,47,15.10
2015,06,25,04,48,15.10
2015,06,25,04,49,15.10
2015,06,25,04,50,15.10
2015,06,25,04,51,15.10
2015,06,25,04,52,15.10
2015,06,25,04,53,15.10
2015,06,25,04,54,15.10
2015,06,25,04,55,15.10
2015,06,25,04,56,15.10
2015,06,25,04,57,15.10
2015,06,25,04,58,15.10
2015,06,25,04,59,15.10
2015,06,25,05,00,15.10
2015,06,25,05,01,15.10
2015,06,25,05,02,15.10
2015,06,25,05,03,15.10
2015,06,25,05,04,15.00
2015,06,25,05,05,15.00
2015,06,25,05,06,15.00
2015,06,25,05,07,15.00
2015,06,25,05,08,15.00
2015,06,25,05,09,15.00
2015,06,25,05,10,15.00
2015,06,25,05,11,15.00
2015,06,25,05,12,15.00
2015,06,25,05,13,15.00
2015,06,25,05,14,15.00
2015,06,25,05,15,15.00
2015,06,25,05,16,15.00
2015,06,25,05,17,15.00
2015,06,25,05,18,14.90
2015,06,25,05,19,14.90
2015,06,25,05,20,14.90
2015,06,25,05,21,14.90
2015,06,25,05,22,14.90
2015,06,25,05,23,14.90
2015,06,25,05,24,14.90
2015,06,25,05,25,14.80
2015,06,25,05,26,14.80
2015,06,25,05,27,14.80
2015,06,25,05,28,14.80
2015,06,25,05,29,14.80
2015,06,25,05,30,14.80
2015,06,25,05,31,14.80
2015,06,25,05,32,14.80
2015,06,25,05,33,14.80
2015,06,25,05,34,14.80
2015,06,25,05,35,14.80
2015,06,25,05,36,14.80
2015,06,25,05,37,14.80
2015,06,25,05,38,14.80
2015,06,25,05,39,14.80
2015,06,25,05,40,14.80
2015,06,25,05,41,14.80
2015,06,25,05,42,14.80
2015,06,25,05,43,14.80
2015,06,25,05,44,14.80
2015,06,25,05,45,14.80
2015,06,25,05,46,14.80
2015,06,25,05,47,14.80
2015,06,25,05,48,14.80
2015,06,25,05,49,14.80
2015,06,25,05,50,14.80
2015,06,25,05,51,14.80
2015,06,25,05,52,14.80
2015,06,25,05,53,14.80
2015,06,25,05,54,14.80
2015,06,25,05,55,14.80
2015,06,25,05,56,14.80
2015,06,25,05,57,14.80
2015,06,25,05,58,14.80
2015,06,25,05,59,14.80
2015,06,25,06,00,14.80
2015,06,25,06,01,14.80
2015,06,25,06,02,14.70
2015,06,25,06,03,14.70
2015,06,25,06,04,14.70
2015,06,25,06,05,14.70
2015,06,25,06,06,14.70
2015,06,25,06,07,14.70
2015,06,25,06,08,14.70
2015,06,25,06,09,14.70
2015,06,25,06,10,14.60
2015,06,25,06,11,14.60
2015,06,25,06,12,14.60
2015,06,25,06,13,14.60
2015,06,25,06,14,14.60
2015,06,25,06,15,14.70
2015,06,25,06,16,14.70
2015,06,25,06,17,14.70
2015,06,25,06,18,14.70
2015,06,25,06,19,14.80
2015,06,25,06,20,14.80
2015,06,25,06,21,14.80
2015,06,25,06,22,14.80
2015,06,25,06,23,14.90
2015,06,25,06,24,14.90
2015,06,25,06,25,15.00
2015,06,25,06,26,15.10
2015,06,25,06,27,15.20
2015,06,25,06,28,15.30
2015,06,25,06,29,15.40
2015,06,25,06,30,15.50
2015,06,25,06,31,15.60
2015,06,25,06,32,15.70
2015,06,25,06,33,15.80
2015,06,25,06,34,15.90
2015,06,25,06,35,16.00
2015,06,25,06,36,16.10
2015,06,25,06,37,16.20
2015,06,25,06,38,16.30
2015,06,25,06,39,16.40
2015,06,25,06,40,16.40
2015,06,25,06,41,16.50
2015,06,25,06,42,16.60
2015,06,25,06,43,16.60
2015,06,25,06,44,16.70
2015,06,25,06,45,16.70
2015,06,25,06,46,16.70
2015,06,25,06,47,16.70
2015,06,25,06,48,16.80
2015,06,25,06,49,16.80
2015,06,25,06,50,16.80
2015,06,25,06,51,16.90
2015,06,25,06,52,16.90
2015,06,25,06,53,17.00
2015,06,25,06,54,17.00
2015,06,25,06,55,17.10
2015,06,25,06,56,17.10
2015,06,25,06,57,17.10
2015,06,25,06,58,17.20
2015,06,25,06,59,17.20
2015,06,25,07,00,17.20
2015,06,25,07,01,17.30
2015,06,25,07,02,17.20
2015,06,25,07,03,17.30
2015,06,25,07,04,17.20
2015,06,25,07,05,17.20
2015,06,25,07,06,17.20
2015,06,25,07,07,17.30
2015,06,25,07,08,17.30
2015,06,25,07,09,17.30
2015,06,25,07,10,17.30
2015,06,25,07,11,17.30
2015,06,25,07,12,17.40
2015,06,25,07,13,17.40
2015,06,25,07,14,17.40
2015,06,25,07,15,17.40
2015,06,25,07,16,17.40
2015,06,25,07,17,17.50
2015,06,25,07,18,17.60
2015,06,25,07,19,17.70
2015,06,25,07,20,17.70
2015,06,25,07,21,17.80
2015,06,25,07,22,17.90
2015,06,25,07,23,17.90
2015,06,25,07,24,18.00
2015,06,25,07,25,18.10
2015,06,25,07,26,18.20
2015,06,25,07,27,18.20
2015,06,25,07,28,18.20
2015,06,25,07,29,18.20
2015,06,25,07,30,18.30
2015,06,25,07,31,18.30
2015,06,25,07,32,18.40
2015,06,25,07,33,18.40
2015,06,25,07,34,18.50
2015,06,25,07,35,18.60
2015,06,25,07,36,18.60
2015,06,25,07,37,18.60
2015,06,25,07,38,18.50
2015,06,25,07,39,18.40
2015,06,25,07,40,18.40
2015,06,25,07,41,18.40
2015,06,25,07,42,18.40
2015,06,25,07,43,18.40
2015,06,25,07,44,18.50
2015,06,25,07,45,18.50
2015,06,25,07,46,18.60
2015,06,25,07,47,18.60
2015,06,25,07,48,18.60
2015,06,25,07,49,18.60
2015,06,25,07,50,18.60
2015,06,25,07,51,18.70
2015,06,25,07,52,18.70
2015,06,25,07,53,18.70
2015,06,25,07,54,18.80
2015,06,25,07,55,18.80
2015,06,25,07,56,18.90
2015,06,25,07,57,18.90
2015,06,25,07,58,19.00
2015,06,25,07,59,19.00
2015,06,25,08,00,19.10
2015,06,25,08,01,19.10
2015,06,25,08,02,19.10
2015,06,25,08,03,19.20
2015,06,25,08,04,19.20
2015,06,25,08,05,19.20
2015,06,25,08,06,19.10
2015,06,25,08,07,19.00
2015,06,25,08,08,18.90
2015,06,25,08,09,18.90
2015,06,25,08,10,18.90
2015,06,25,08,11,18.90
2015,06,25,08,12,18.90
2015,06,25,08,13,18.90
2015,06,25,08,14,18.90
2015,06,25,08,15,18.90
2015,06,25,08,16,18.90
2015,06,25,08,17,18.90
2015,06,25,08,18,18.90
2015,06,25,08,19,18.90
2015,06,25,08,20,18.90
2015,06,25,08,21,18.90
2015,06,25,08,22,18.90
2015,06,25,08,23,18.90
2015,06,25,08,24,18.90
2015,06,25,08,25,18.90
2015,06,25,08,26,18.90
2015,06,25,08,27,19.00
2015,06,25,08,28,18.90
2015,06,25,08,29,18.80
2015,06,25,08,30,18.80
2015,06,25,08,31,18.80
2015,06,25,08,32,18.70
2015,06,25,08,33,18.70
2015,06,25,08,34,18.70
2015,06,25,08,35,18.80
2015,06,25,08,36,18.90
2015,06,25,08,37,18.90
2015,06,25,08,38,19.10
2015,06,25,08,39,19.10
2015,06,25,08,40,19.10
2015,06,25,08,41,19.10
2015,06,25,08,42,19.10
2015,06,25,08,43,19.20
2015,06,25,08,44,19.30
2015,06,25,08,45,19.40
2015,06,25,08,46,19.40
2015,06,25,08,47,19.40
2015,06,25,08,48,19.40
2015,06,25,08,49,19.30
2015,06,25,08,50,19.30
2015,06,25,08,51,19.40
2015,06,25,08,52,19.50
2015,06,25,08,53,19.50
2015,06,25,08,54,19.60
2015,06,25,08,55,19.60
2015,06,25,08,56,19.60
2015,06,25,08,57,19.50
2015,06,25,08,58,19.40
2015,06,25,08,59,19.30
2015,06,25,09,00,19.30
2015,06,25,09,01,19.20
2015,06,25,09,02,19.10
2015,06,25,09,03,19.10
2015,06,25,09,04,19.10
2015,06,25,09,05,19.10
2015,06,25,09,06,19.10
2015,06,25,09,07,19.30
2015,06,25,09,08,19.40
2015,06,25,09,09,19.40
2015,06,25,09,10,19.50
2015,06,25,09,11,19.40
2015,06,25,09,12,19.30
2015,06,25,09,13,19.20
2015,06,25,09,14,19.20
2015,06,25,09,15,19.10
2015,06,25,09,16,19.10
2015,06,25,09,17,19.10
2015,06,25,09,18,19.10
2015,06,25,09,19,19.10
2015,06,25,09,20,19.00
2015,06,25,09,21,18.90
2015,06,25,09,22,19.10
2015,06,25,09,23,19.10
2015,06,25,09,24,18.90
2015,06,25,09,25,18.90
2015,06,25,09,26,18.70
2015,06,25,09,27,18.70
2015,06,25,09,28,18.70
2015,06,25,09,29,18.70
2015,06,25,09,30,18.60
2015,06,25,09,31,18.40
2015,06,25,09,32,18.20
2015,06,25,09,33,18.10
2015,06,25,09,34,17.90
2015,06,25,09,35,17.80
2015,06,25,09,36,17.80
2015,06,25,09,37,17.70
2015,06,25,09,38,17.80
2015,06,25,09,39,17.80
2015,06,25,09,40,17.80
2015,06,25,09,41,17.80
2015,06,25,09,42,17.80
2015,06,25,09,43,17.90
2015,06,25,09,44,18.10
2015,06,25,09,45,18.20
2015,06,25,09,46,18.40
2015,06,25,09,47,18.60
2015,06,25,09,48,18.70
2015,06,25,09,49,18.80
2015,06,25,09,50,18.90
2015,06,25,09,51,18.90
2015,06,25,09,52,18.90
2015,06,25,09,53,18.90
2015,06,25,09,54,18.90
2015,06,25,09,55,18.90
2015,06,25,09,56,18.90
2015,06,25,09,57,18.90
2015,06,25,09,58,18.90
2015,06,25,09,59,18.90
2015,06,25,10,00,18.90
2015,06,25,10,01,18.80
2015,06,25,10,02,18.80
2015,06,25,10,03,18.90
2015,06,25,10,04,19.10
2015,06,25,10,05,19.20
2015,06,25,10,06,19.40
2015,06,25,10,07,19.40
2015,06,25,10,08,19.50
2015,06,25,10,09,19.50
2015,06,25,10,10,19.50
2015,06,25,10,11,19.60
2015,06,25,10,12,19.60
2015,06,25,10,13,19.70
2015,06,25,10,14,19.80
2015,06,25,10,15,19.90
2015,06,25,10,16,20.10
2015,06,25,10,17,20.20
2015,06,25,10,18,20.30
2015,06,25,10,19,20.30
2015,06,25,10,20,20.40
2015,06,25,10,21,20.40
2015,06,25,10,22,20.40
2015,06,25,10,23,20.30
2015,06,25,10,24,20.30
2015,06,25,10,25,20.20
2015,06,25,10,26,20.20
2015,06,25,10,27,20.20
2015,06,25,10,28,20.20
2015,06,25,10,29,20.10
2015,06,25,10,30,20.00
2015,06,25,10,31,19.90
2015,06,25,10,32,19.90
2015,06,25,10,33,19.90
2015,06,25,10,34,20.00
2015,06,25,10,35,20.10
2015,06,25,10,36,20.20
2015,06,25,10,37,20.20
2015,06,25,10,38,20.20
2015,06,25,10,39,20.00
2015,06,25,10,40,19.90
2015,06,25,10,41,19.80
2015,06,25,10,42,19.90
2015,06,25,10,43,20.00
2015,06,25,10,44,20.20
2015,06,25,10,45,20.10
2015,06,25,10,46,20.10
2015,06,25,10,47,20.00
2015,06,25,10,48,20.00
2015,06,25,10,49,20.10
2015,06,25,10,50,20.10
2015,06,25,10,51,20.10
2015,06,25,10,52,20.10
2015,06,25,10,53,20.00
2015,06,25,10,54,19.90
2015,06,25,10,55,19.70
2015,06,25,10,56,19.70
2015,06,25,10,57,19.70
2015,06,25,10,58,19.70
2015,06,25,10,59,19.80
2015,06,25,11,00,19.90
2015,06,25,11,01,19.90
2015,06,25,11,02,19.90
2015,06,25,11,03,19.80
2015,06,25,11,04,19.90
2015,06,25,11,05,19.80
2015,06,25,11,06,19.90
2015,06,25,11,07,20.00
2015,06,25,11,08,20.10
2015,06,25,11,09,20.20
2015,06,25,11,10,20.40
2015,06,25,11,11,20.50
2015,06,25,11,12,20.60
2015,06,25,11,13,20.70
2015,06,25,11,14,20.70
2015,06,25,11,15,20.60
2015,06,25,11,16,20.60
2015,06,25,11,17,20.50
2015,06,25,11,18,20.40
2015,06,25,11,19,20.30
2015,06,25,11,20,20.10
2015,06,25,11,21,20.00
2015,06,25,11,22,20.00
2015,06,25,11,23,20.00
2015,06,25,11,24,19.90
2015,06,25,11,25,19.80
2015,06,25,11,26,19.90
2015,06,25,11,27,19.90
2015,06,25,11,28,19.90
2015,06,25,11,29,19.90
2015,06,25,11,30,19.80
2015,06,25,11,31,19.90
2015,06,25,11,32,20.00
2015,06,25,11,33,20.10
2015,06,25,11,34,20.20
2015,06,25,11,35,20.20
2015,06,25,11,36,20.20
2015,06,25,11,37,20.20
2015,06,25,11,38,20.40
2015,06,25,11,39,20.50
2015,06,25,11,40,20.50
2015,06,25,11,41,20.60
2015,06,25,11,42,20.60
2015,06,25,11,43,20.50
2015,06,25,11,44,20.40
2015,06,25,11,45,20.30
2015,06,25,11,46,20.30
2015,06,25,11,47,20.30
2015,06,25,11,48,20.20
2015,06,25,11,49,20.20
2015,06,25,11,50,20.20
2015,06,25,11,51,20.20
2015,06,25,11,52,20.20
2015,06,25,11,53,20.40
2015,06,25,11,54,20.40
2015,06,25,11,55,20.40
2015,06,25,11,56,20.50
2015,06,25,11,57,20.50
2015,06,25,11,58,20.50
2015,06,25,11,59,20.70
2015,06,25,12,00,20.90
2015,06,25,12,01,21.00
2015,06,25,12,02,21.20
2015,06,25,12,03,21.20
2015,06,25,12,04,21.30
2015,06,25,12,05,21.50
2015,06,25,12,06,21.60
2015,06,25,12,07,21.60
2015,06,25,12,08,21.60
2015,06,25,12,09,21.60
2015,06,25,12,10,21.80
2015,06,25,12,11,22.00
2015,06,25,12,12,22.20
2015,06,25,12,13,22.50
2015,06,25,12,14,22.80
2015,06,25,12,15,23.00
2015,06,25,12,16,23.10
2015,06,25,12,17,23.20
2015,06,25,12,18,23.30
2015,06,25,12,19,23.50
2015,06,25,12,20,23.60
2015,06,25,12,21,23.50
2015,06,25,12,22,23.40
2015,06,25,12,23,23.50
2015,06,25,12,24,23.60
2015,06,25,12,25,23.60
2015,06,25,12,26,23.60
2015,06,25,12,27,23.60
2015,06,25,12,28,23.70
2015,06,25,12,29,23.70
2015,06,25,12,30,23.90
2015,06,25,12,31,24.00
2015,06,25,12,32,24.10
2015,06,25,12,33,24.10
2015,06,25,12,34,24.30
2015,06,25,12,35,24.40
2015,06,25,12,36,24.50
2015,06,25,12,37,24.60
2015,06,25,12,38,24.70
2015,06,25,12,39,24.70
2015,06,25,12,40,24.60
2015,06,25,12,41,24.70
2015,06,25,12,42,24.70
2015,06,25,12,43,24.80
2015,06,25,12,44,24.90
2015,06,25,12,45,25.00
2015,06,25,12,46,25.20
2015,06,25,12,47,25.30
2015,06,25,12,48,25.30
2015,06,25,12,49,25.40
2015,06,25,12,50,25.50
2015,06,25,12,51,25.50
2015,06,25,12,52,25.50
2015,06,25,12,53,25.50
2015,06,25,12,54,25.50
2015,06,25,12,55,25.40
2015,06,25,12,56,25.50
2015,06,25,12,57,25.40
2015,06,25,12,58,25.40
2015,06,25,12,59,25.40
2015,06,25,13,00,25.30
2015,06,25,13,01,25.30
2015,06,25,13,02,25.30
2015,06,25,13,03,25.30
2015,06,25,13,04,25.30
2015,06,25,13,05,25.30
2015,06,25,13,06,25.40
2015,06,25,13,07,25.40
2015,06,25,13,08,25.40
2015,06,25,13,09,25.50
2015,06,25,13,10,25.50
2015,06,25,13,11,25.50
2015,06,25,13,12,25.50
2015,06,25,13,13,25.50
2015,06,25,13,14,25.50
2015,06,25,13,15,25.50
2015,06,25,13,16,25.50
2015,06,25,13,17,25.40
2015,06,25,13,18,25.30
2015,06,25,13,19,25.30
2015,06,25,13,20,25.10
2015,06,25,13,21,25.10
2015,06,25,13,22,25.00
2015,06,25,13,23,25.00
2015,06,25,13,24,25.00
2015,06,25,13,25,24.90
2015,06,25,13,26,24.90
2015,06,25,13,27,24.90
2015,06,25,13,28,25.00
2015,06,25,13,29,25.00
2015,06,25,13,30,25.00
2015,06,25,13,31,25.10
2015,06,25,13,32,25.20
2015,06,25,13,33,25.30
2015,06,25,13,34,25.20
2015,06,25,13,35,25.20
2015,06,25,13,36,25.20
2015,06,25,13,37,25.20
2015,06,25,13,38,25.20
2015,06,25,13,39,25.20
2015,06,25,13,40,25.20
2015,06,25,13,41,25.30
2015,06,25,13,42,25.40
2015,06,25,13,43,25.50
2015,06,25,13,44,25.60
2015,06,25,13,45,25.80
2015,06,25,13,46,25.90
2015,06,25,13,47,25.90
2015,06,25,13,48,25.80
2015,06,25,13,49,25.80
2015,06,25,13,50,25.90
2015,06,25,13,51,25.90
2015,06,25,13,52,25.90
2015,06,25,13,53,25.80
2015,06,25,13,54,25.80
2015,06,25,13,55,25.80
2015,06,25,13,56,25.90
2015,06,25,13,57,25.90
2015,06,25,13,58,26.00
2015,06,25,13,59,26.00
2015,06,25,14,00,26.00
2015,06,25,14,01,26.00
2015,06,25,14,02,26.10
2015,06,25,14,03,26.10
2015,06,25,14,04,26.00
2015,06,25,14,05,25.90
2015,06,25,14,06,25.80
2015,06,25,14,07,25.80
2015,06,25,14,08,25.80
2015,06,25,14,09,25.80
2015,06,25,14,10,25.70
2015,06,25,14,11,25.60
2015,06,25,14,12,25.60
2015,06,25,14,13,25.60
2015,06,25,14,14,25.60
2015,06,25,14,15,25.60
2015,06,25,14,16,25.60
2015,06,25,14,17,25.60
2015,06,25,14,18,25.50
2015,06,25,14,19,25.30
2015,06,25,14,20,25.30
2015,06,25,14,21,25.30
2015,06,25,14,22,25.30
2015,06,25,14,23,25.30
2015,06,25,14,24,25.30
2015,06,25,14,25,25.30
2015,06,25,14,26,25.40
2015,06,25,14,27,25.50
2015,06,25,14,28,25.60
2015,06,25,14,29,25.70
2015,06,25,14,30,25.70
2015,06,25,14,31,25.80
2015,06,25,14,32,25.80
2015,06,25,14,33,25.80
2015,06,25,14,34,25.80
2015,06,25,14,35,25.80
2015,06,25,14,36,25.80
2015,06,25,14,37,25.70
2015,06,25,14,38,25.70
2015,06,25,14,39,25.80
2015,06,25,14,40,25.80
2015,06,25,14,41,25.90
2015,06,25,14,42,25.90
2015,06,25,14,43,26.00
2015,06,25,14,44,26.00
2015,06,25,14,45,26.00
2015,06,25,14,46,26.10
2015,06,25,14,47,26.10
2015,06,25,14,48,26.10
2015,06,25,14,49,26.10
2015,06,25,14,50,26.10
2015,06,25,14,51,26.10
2015,06,25,14,52,26.10
2015,06,25,14,53,26.20
2015,06,25,14,54,26.30
2015,06,25,14,55,26.30
2015,06,25,14,56,26.40
2015,06,25,14,57,26.40
2015,06,25,14,58,26.40
2015,06,25,14,59,26.30
2015,06,25,15,00,26.30
2015,06,25,15,01,26.10
2015,06,25,15,02,25.90
2015,06,25,15,03,25.80
2015,06,25,15,04,25.70
2015,06,25,15,05,25.70
2015,06,25,15,06,25.70
2015,06,25,15,07,25.60
2015,06,25,15,08,25.50
2015,06,25,15,09,25.50
2015,06,25,15,10,25.50
2015,06,25,15,11,25.50
2015,06,25,15,12,25.50
2015,06,25,15,13,25.60
2015,06,25,15,14,25.60
2015,06,25,15,15,25.70
2015,06,25,15,16,25.80
2015,06,25,15,17,25.80
2015,06,25,15,18,25.90
2015,06,25,15,19,26.00
2015,06,25,15,20,26.00
2015,06,25,15,21,26.00
2015,06,25,15,22,26.00
2015,06,25,15,23,26.00
2015,06,25,15,24,26.10
2015,06,25,15,25,26.00
2015,06,25,15,26,25.90
2015,06,25,15,27,25.70
2015,06,25,15,28,25.60
2015,06,25,15,29,25.50
2015,06,25,15,30,25.40
2015,06,25,15,31,25.30
2015,06,25,15,32,25.20
2015,06,25,15,33,25.20
2015,06,25,15,34,25.10
2015,06,25,15,35,25.00
2015,06,25,15,36,24.90
2015,06,25,15,37,24.80
2015,06,25,15,38,24.80
2015,06,25,15,39,24.70
2015,06,25,15,40,24.70
2015,06,25,15,41,24.60
2015,06,25,15,42,24.50
2015,06,25,15,43,24.50
2015,06,25,15,44,24.40
2015,06,25,15,45,24.40
2015,06,25,15,46,24.20
2015,06,25,15,47,24.20
2015,06,25,15,48,24.20
2015,06,25,15,49,24.30
2015,06,25,15,50,24.40
2015,06,25,15,51,24.50
2015,06,25,15,52,24.50
2015,06,25,15,53,24.60
2015,06,25,15,54,24.60
2015,06,25,15,55,24.50
2015,06,25,15,56,24.50
2015,06,25,15,57,24.40
2015,06,25,15,58,24.40
2015,06,25,15,59,24.30
2015,06,25,16,00,24.30
2015,06,25,16,01,24.30
2015,06,25,16,02,24.20
2015,06,25,16,03,24.10
2015,06,25,16,04,24.10
2015,06,25,16,05,24.10
2015,06,25,16,06,24.10
2015,06,25,16,07,24.20
2015,06,25,16,08,24.20
2015,06,25,16,09,24.20
2015,06,25,16,10,24.20
2015,06,25,16,11,24.10
2015,06,25,16,12,24.10
2015,06,25,16,13,24.10
2015,06,25,16,14,24.10
2015,06,25,16,15,24.10
2015,06,25,16,16,24.10
2015,06,25,16,17,24.10
2015,06,25,16,18,24.10
2015,06,25,16,19,24.20
2015,06,25,16,20,24.30
2015,06,25,16,21,24.40
2015,06,25,16,22,24.40
2015,06,25,16,23,24.40
2015,06,25,16,24,24.50
2015,06,25,16,25,24.50
2015,06,25,16,26,24.60
2015,06,25,16,27,24.60
2015,06,25,16,28,24.70
2015,06,25,16,29,24.80
2015,06,25,16,30,24.90
2015,06,25,16,31,24.90
2015,06,25,16,32,25.00
2015,06,25,16,33,25.10
2015,06,25,16,34,25.30
2015,06,25,16,35,25.40
2015,06,25,16,36,25.40
2015,06,25,16,37,25.50
2015,06,25,16,38,25.60
2015,06,25,16,39,25.70
2015,06,25,16,40,25.70
2015,06,25,16,41,25.80
2015,06,25,16,42,25.80
2015,06,25,16,43,25.90
2015,06,25,16,44,26.00
2015,06,25,16,45,26.10
2015,06,25,16,46,26.10
2015,06,25,16,47,26.20
2015,06,25,16,48,26.20
2015,06,25,16,49,26.10
2015,06,25,16,50,26.10
2015,06,25,16,51,26.10
2015,06,25,16,52,26.20
2015,06,25,16,53,26.20
2015,06,25,16,54,26.20
2015,06,25,16,55,26.10
2015,06,25,16,56,26.00
2015,06,25,16,57,25.90
2015,06,25,16,58,25.80
2015,06,25,16,59,25.80
2015,06,25,17,00,25.80
2015,06,25,17,01,25.90
2015,06,25,17,02,25.90
2015,06,25,17,03,25.90
2015,06,25,17,04,26.00
2015,06,25,17,05,26.00
2015,06,25,17,06,26.00
2015,06,25,17,07,26.10
2015,06,25,17,08,26.20
2015,06,25,17,09,26.20
2015,06,25,17,10,26.20
2015,06,25,17,11,26.10
2015,06,25,17,12,26.00
2015,06,25,17,13,25.90
2015,06,25,17,14,25.80
2015,06,25,17,15,25.80
2015,06,25,17,16,25.70
2015,06,25,17,17,25.70
2015,06,25,17,18,25.70
2015,06,25,17,19,25.70